Milan, NH

2:05 PM EST on February 06, 2016 (GMT -0500)
Berlin Municipal

Weather History for KBML - December, 2002

Change the Weather History Date:

Monday, December 30, 2002

  Actual Average Record
Temperature  
Mean Temperature 12 °F -  
Max Temperature 17 °F 25 °F 41 °F (2003)
Min Temperature 6 °F 5 °F -7 °F (1998)
Degree Days  
Heating Degree Days 54    
Moisture  
Dew Point 3 °F    
Average Humidity 71    
Maximum Humidity 88    
Minimum Humidity 50    
Precipitation  
Precipitation 0.00 in - - ()
Sea Level Pressure  
Sea Level Pressure 30.32 in    
Wind  
Wind Speed 5 mph (NNW)    
Max Wind Speed 10 mph    
Max Gust Speed 16 mph    
Visibility 10 miles    
Events      
Averages and records for this station are not official NWS values.
T = Trace of Precipitation, MM = Missing Value Source: NWS Daily Summary

Daily Weather History Graph

Daily Weather History Graph

Search for Another Location

Airport or City:

Trip Planner

Search our weather history database for the weather conditions in past years. The results will help you decide how hot, cold, wet, or windy it might be!

Date:

Astronomy

Dec. 30, 2002 Rise Set
Actual Time 7:21 AM EST 4:13 PM EST
Civil Twilight 6:47 AM EST 4:46 PM EST
Nautical Twilight 6:11 AM EST 5:23 PM EST
Astronomical Twilight 5:35 AM EST 5:59 PM EST
Moon 3:44 AM EST (12/30) 1:34 PM EST (12/30)
Length of Visible Light 9h 58m
Length of Day
8h 52m
Waning Crescent, 12% of the Moon is Illuminated
Dec 30
Waning Crescent
Jan 2
New
Jan 10
First Quarter
Jan 18
Full
Jan 25
Last Quarter

Hourly Weather History & Observations

Time (EST) Temp. Windchill Dew Point Humidity Pressure Visibility Wind Dir Wind Speed Gust Speed Precip Events Conditions
12:52 AM 12.9 °F -0.2 °F 5.0 °F 71% 30.20 in 10.0 mi NNW 10.4 mph - N/A   Clear
1:52 AM 10.9 °F -0.8 °F 3.0 °F 70% 30.23 in 10.0 mi NW 8.1 mph 16.1 mph N/A   Clear
2:52 AM 9.0 °F 2.4 °F 1.0 °F 70% 30.26 in 10.0 mi Variable 3.5 mph - N/A   Clear
3:52 AM 7.0 °F 0.1 °F -0.0 °F 73% 30.25 in 10.0 mi Variable 3.5 mph - N/A   Clear
4:52 AM 7.0 °F 0.1 °F -0.9 °F 70% 30.28 in 10.0 mi NW 3.5 mph - N/A   Clear
5:52 AM 6.1 °F -2.8 °F -0.0 °F 76% 30.30 in 10.0 mi Variable 4.6 mph - N/A   Clear
6:52 AM 6.1 °F -4.3 °F -0.0 °F 76% 30.32 in 10.0 mi NNW 5.8 mph - N/A   Clear
7:52 AM 7.0 °F -1.7 °F -0.0 °F 73% 30.35 in 10.0 mi Variable 4.6 mph - N/A   Clear
8:52 AM 7.0 °F 0.1 °F 1.0 °F 77% 30.39 in 10.0 mi North 3.5 mph - N/A   Clear
9:52 AM 10.0 °F -1.9 °F -0.0 °F 64% 30.38 in 10.0 mi NNW 8.1 mph - N/A   Clear
10:52 AM 10.9 °F 4.7 °F 1.0 °F 64% 30.37 in 10.0 mi Variable 3.5 mph - N/A   Clear
11:52 AM 12.9 °F - 1.0 °F 59% 30.36 in 10.0 mi Calm Calm - N/A   Clear
12:52 PM 16.0 °F 8.8 °F 1.9 °F 54% 30.34 in 10.0 mi NNW 4.6 mph - N/A   Clear
1:52 PM 17.1 °F 11.7 °F 3.0 °F 54% 30.35 in 10.0 mi North 3.5 mph - N/A   Clear
2:52 PM 17.1 °F - 1.0 °F 50% 30.34 in 10.0 mi Calm Calm - N/A   Clear
3:52 PM 15.1 °F - 3.9 °F 61% 30.35 in 10.0 mi Calm Calm - N/A   Clear
4:52 PM 16.0 °F - 7.0 °F 68% 30.35 in 10.0 mi Calm Calm - N/A   Overcast
5:52 PM 16.0 °F - 6.1 °F 65% 30.35 in 10.0 mi Calm Calm - N/A   Overcast
6:52 PM 12.0 °F - 6.1 °F 77% 30.34 in 10.0 mi Calm Calm - N/A   Clear
7:52 PM 10.9 °F - 8.1 °F 88% 30.33 in 10.0 mi Calm Calm - N/A   Scattered Clouds
8:52 PM 10.9 °F - 8.1 °F 88% 30.32 in 10.0 mi Calm Calm - N/A   Clear
9:52 PM 10.9 °F - 8.1 °F 88% 30.29 in 10.0 mi Calm Calm - N/A   Clear
10:52 PM 10.9 °F - 8.1 °F 88% 30.28 in 10.0 mi Calm Calm - N/A   Mostly Cloudy
11:52 PM 12.9 °F - 5.0 °F 71% 30.26 in 10.0 mi Calm Calm - N/A   Overcast